RH
34 38 38 38 38 40 43 45 45 45 48 44 36 35 40 43 42 39 39 40 39 35 33 34 36 35 37 43 50 52 52 53 54 55 54 55 57 59 63 68 72 74 72 66 64 70 79 85 88 89 84 82 83 74 59 53 56 60 60 58 59 59 58 58 54 52 55 56 53 54 56 56 55 55 54 54 56 51 44 45 47 44 43 43 41
37 38 38 38 39 42 45 47 48 48 47 42 36 37 40 39 39 39 41 43 41 35 33 33 33 35 40 45 49 51 52 53 53 51 51 52 55 58 61 66 74 80 82 77 71 71 79 86 89 90 85 83 83 73 58 53 57 62 60 54 57 60 57 57 57 56 58 60 59 58 58 56 55 56 55 54 56 57 52 50 49 49 47 45 43
38 38 37 38 41 44 47 49 51 51 47 41 37 39 41 37 36 41 45 45 41 36 33 32 32 34 39 42 45 49 51 52 51 50 51 52 54 57 59 64 72 81 86 86 79 74 78 85 88 89 87 83 81 74 62 56 57 61 58 50 52 58 56 57 60 59 58 60 62 61 58 55 54 55 55 55 56 54 53 54 52 50 50 47 46
37 38 37 38 43 47 48 51 53 51 47 41 37 40 40 37 38 43 45 42 38 36 34 32 30 31 34 37 42 47 49 50 50 51 52 52 54 57 59 66 77 85 89 90 87 81 81 86 88 89 89 84 79 75 70 63 59 57 52 45 46 50 51 55 59 60 59 60 62 62 61 57 55 56 56 57 58 51 50 54 52 49 51 50 48
37 37 38 39 44 48 49 52 54 52 48 41 39 41 40 38 41 44 42 38 35 34 33 32 30 28 31 35 40 45 48 49 49 49 50 51 52 55 59 69 82 92 93 92 90 87 85 89 90 90 91 86 78 77 75 70 64 56 48 45 45 44 45 50 56 60 60 60 61 61 62 61 58 58 57 58 59 54 50 51 49 48 52 52 49
37 37 39 40 43 48 50 52 55 53 48 42 41 43 43 42 43 41 38 35 35 35 33 32 30 28 31 36 41 44 45 45 47 48 48 50 52 54 59 68 78 86 92 93 91 89 88 90 90 90 91 87 82 82 78 73 67 57 51 51 49 43 43 47 55 62 63 62 62 62 63 63 61 60 57 55 57 58 57 54 49 49 54 54 51
36 37 39 42 43 47 50 52 53 51 47 43 43 45 44 44 43 40 36 35 35 36 35 32 30 29 33 37 41 44 43 43 45 46 47 50 53 53 57 64 70 75 85 92 94 93 92 91 90 90 90 88 87 86 80 73 66 57 53 52 47 43 46 50 56 63 65 64 64 65 64 63 61 60 58 54 52 54 57 59 56 54 56 56 52
37 37 40 42 44 46 49 52 51 48 43 41 42 43 44 43 41 38 36 35 36 36 35 33 31 30 34 39 41 41 39 40 43 45 45 47 51 53 56 62 66 69 78 89 94 94 91 90 89 89 90 89 87 83 77 71 65 57 52 49 45 46 54 58 57 60 65 66 66 66 65 63 62 62 60 54 52 53 54 56 58 58 57 56 52
38 39 41 42 44 46 49 51 51 46 42 40 40 41 42 41 40 37 36 36 36 36 35 33 31 31 36 41 42 39 38 38 40 41 43 44 48 51 56 61 64 66 74 82 87 89 88 87 88 89 88 87 85 82 76 70 65 59 54 50 48 50 57 61 61 62 66 68 67 66 65 63 62 62 61 58 57 58 55 49 52 58 57 54 53
39 39 41 43 45 47 49 50 48 43 40 39 39 40 41 40 39 37 37 37 36 36 35 32 30 31 37 41 41 38 36 36 38 40 41 43 46 50 54 57 60 63 68 73 79 84 85 85 87 88 87 84 83 82 77 72 69 66 62 58 53 52 56 62 66 68 69 68 67 67 65 63 62 62 63 63 61 59 55 49 52 58 57 53 52
39 38 39 44 47 48 49 48 46 42 39 38 38 39 39 39 38 38 38 38 37 36 34 32 30 33 38 41 40 37 35 35 37 38 39 42 46 49 51 55 57 60 63 67 72 79 83 85 87 88 87 85 84 84 82 77 74 72 71 66 59 58 64 69 70 71 70 68 68 67 65 65 64 63 63 64 62 58 57 57 56 58 58 53 49
41 39 38 42 45 46 47 46 44 42 40 39 39 39 39 38 39 39 39 38 37 36 34 31 32 36 40 41 39 36 35 35 37 38 39 41 46 48 50 54 57 58 61 64 68 71 78 84 88 88 85 83 83 84 83 79 76 76 75 71 64 62 66 69 69 70 70 67 68 68 67 66 64 63 64 65 64 59 55 57 56 54 56 51 46
43 42 41 42 42 42 43 43 42 42 41 41 40 39 39 39 39 39 39 38 37 36 33 32 33 38 42 42 38 35 35 35 36 37 38 40 46 49 50 52 55 57 59 63 64 65 70 77 83 86 83 79 78 78 77 74 73 72 70 69 65 60 61 62 64 67 69 68 67 66 66 65 62 64 64 59 59 61 59 57 55 52 53 51 47
44 43 43 44 44 44 43 43 43 44 44 43 41 40 40 40 40 40 39 38 37 35 33 33 35 39 42 40 37 36 35 34 36 36 37 41 46 50 52 52 53 55 59 62 62 62 64 68 72 74 73 71 69 69 68 67 65 63 63 66 66 62 60 60 58 61 65 66 65 63 64 65 64 65 60 50 50 60 61 57 55 52 51 49 44
45 44 43 44 45 45 46 46 46 46 46 44 42 42 42 42 42 42 40 39 37 35 33 34 36 40 42 40 38 36 35 35 37 35 36 41 47 50 52 52 52 55 58 61 60 60 62 65 66 65 65 63 62 59 58 55 53 55 61 67 70 66 62 58 57 59 63 63 64 63 61 60 57 54 49 43 44 49 48 47 49 48 48 48 45
46 45 44 43 43 43 46 48 48 47 46 46 45 45 44 43 43 42 42 41 39 36 34 35 38 42 42 39 38 37 35 36 37 35 36 41 46 50 52 53 53 54 56 59 60 60 62 63 62 61 61 61 61 57 53 51 52 59 65 68 69 63 56 53 54 58 61 61 61 59 54 51 49 47 46 46 46 47 49 51 54 57 57 56 55
46 45 44 43 42 42 43 45 46 47 47 47 46 44 43 44 42 41 42 41 39 37 35 36 41 43 41 39 38 37 37 37 36 36 38 41 45 50 52 52 54 55 56 59 61 60 60 58 57 57 57 58 59 58 55 54 59 65 69 71 72 65 59 61 64 64 63 61 58 56 53 51 51 51 51 51 51 55 62 63 62 64 64 61 61
47 46 44 43 42 43 44 44 46 47 46 45 45 43 43 43 42 40 41 41 38 36 36 40 45 45 41 40 39 37 38 38 37 37 40 42 45 49 49 49 52 55 56 57 59 59 59 58 57 58 58 57 58 58 56 58 64 68 69 73 74 68 66 70 71 67 65 62 60 59 58 57 57 57 56 56 55 59 65 64 63 67 66 64 65
47 46 44 43 42 44 45 47 47 47 47 46 44 42 42 43 41 40 40 40 38 36 38 43 46 45 44 42 40 39 40 39 38 40 42 44 47 50 50 49 51 54 53 53 55 55 57 58 60 62 64 63 63 62 59 62 69 70 70 75 75 70 68 70 69 67 68 68 68 68 66 64 62 59 57 56 55 56 59 61 64 68 68 67 67
46 46 46 45 44 46 46 47 46 46 46 45 42 39 39 40 40 39 39 39 37 37 41 46 46 45 45 43 40 41 42 41 42 44 45 48 51 54 53 51 52 53 51 52 54 55 55 57 59 62 65 66 67 66 62 62 65 64 67 75 75 70 71 75 76 78 81 82 82 82 77 69 61 56 53 51 52 55 57 58 60 64 68 70 70
46 46 47 46 47 48 49 48 48 47 47 46 44 42 41 42 42 41 41 40 37 38 44 47 46 46 45 43 42 42 43 44 46 48 49 52 56 57 57 56 54 53 52 53 55 57 57 57 58 59 62 64 65 65 63 62 60 59 63 70 68 64 69 74 76 83 88 88 88 85 75 62 55 51 50 50 54 57 58 59 60 63 65 66 67
49 49 49 49 50 53 53 52 52 52 51 50 49 47 46 45 44 43 42 39 36 40 46 48 48 49 47 46 45 44 44 46 49 51 53 56 59 61 62 62 59 56 55 55 57 58 59 59 59 59 61 62 62 62 61 60 60 60 61 62 58 57 63 67 68 74 78 79 80 79 71 64 62 61 59 59 60 60 60 61 63 63 63 62 62
52 53 52 51 51 52 53 54 54 54 55 54 52 52 51 47 43 42 39 35 37 44 48 48 50 51 49 48 48 46 46 48 50 53 56 59 63 65 66 66 63 59 57 58 59 60 61 62 63 64 64 65 65 64 62 62 62 62 60 56 53 55 60 62 63 64 66 69 75 78 77 77 76 73 69 67 65 63 62 62 62 62 61 58 56
54 55 55 53 51 50 51 53 55 57 58 58 55 54 51 45 42 40 37 37 43 48 48 49 52 52 50 49 49 49 49 51 53 57 60 63 67 69 69 69 67 64 63 62 62 64 66 66 66 67 67 68 68 68 67 65 64 63 60 56 54 57 60 61 62 62 63 68 74 76 78 78 74 69 66 65 63 62 62 62 62 60 56 53 53
53 53 53 53 54 54 55 57 59 61 62 61 59 57 51 46 43 42 44 48 51 50 48 51 54 53 51 51 51 51 53 55 57 60 63 67 70 72 73 73 73 71 68 67 67 70 72 70 69 68 69 71 72 71 69 66 64 63 61 57 56 60 63 61 61 63 64 67 70 72 71 68 63 60 59 60 61 63 63 62 60 57 55 56 60
51 50 50 51 54 56 57 58 60 61 61 60 60 59 57 53 50 52 56 58 55 50 50 54 55 54 53 53 53 54 57 59 61 64 66 69 72 74 75 76 77 76 76 75 73 73 75 74 72 72 72 73 74 74 71 67 64 62 60 58 60 64 64 61 61 63 64 66 70 71 66 60 56 55 57 59 61 62 61 61 61 61 62 66 69
52 51 50 51 54 55 56 56 57 59 59 58 61 67 69 65 62 66 68 62 54 51 54 57 58 57 55 54 56 57 60 64 67 69 69 71 74 75 76 78 79 81 83 83 80 76 75 74 74 74 74 74 74 75 74 70 66 63 63 63 65 67 64 61 61 64 65 67 70 69 65 61 57 57 58 61 62 60 59 62 67 69 70 70 71
55 54 52 55 59 61 61 60 60 62 63 63 67 76 78 72 72 79 77 64 54 54 57 59 61 60 58 58 60 62 66 69 72 73 73 74 76 77 78 79 82 84 86 86 84 79 76 74 74 75 75 75 75 75 73 71 68 66 67 68 69 69 68 66 68 70 70 70 69 68 66 64 61 60 61 62 61 62 65 70 73 74 73 73 73
57 55 56 60 64 66 67 67 68 71 74 74 74 77 76 73 75 79 73 63 59 61 63 64 64 63 62 63 64 68 71 73 75 76 77 77 78 80 80 81 82 83 85 86 85 82 78 75 74 74 75 76 77 75 73 71 69 68 70 72 72 72 74 75 75 75 72 70 69 69 67 65 63 63 64 64 66 70 73 75 75 76 77 77 77
60 60 61 65 68 69 71 72 73 75 77 79 79 77 74 74 77 76 71 69 72 74 73 72 69 67 67 69 71 73 75 77 77 78 78 78 79 79 78 78 78 78 81 83 82 81 79 77 76 77 79 81 80 78 74 72 69 68 70 73 74 75 77 78 78 75 73 71 69 68 67 65 65 66 68 71 74 75 74 73 75 77 79 78 79
65 68 70 71 72 74 75 75 77 77 78 80 82 81 79 79 80 78 75 77 80 82 82 81 79 77 78 78 77 75 76 76 76 75 74 75 75 75 74 73 72 72 74 78 80 82 82 82 82 82 83 83 81 77 73 69 65 65 70 76 78 79 79 78 78 75 72 70 69 67 66 66 67 69 73 76 77 74 73 75 78 77 78 78 80
74 79 81 80 80 82 81 80 79 79 80 83 85 86 87 88 89 86 84 85 86 88 90 89 86 83 82 80 77 76 75 75 74 73 72 72 72 71 70 69 69 70 72 76 81 83 82 81 81 82 82 81 77 72 69 66 65 68 74 79 80 79 78 77 76 73 70 68 69 69 69 69 70 72 75 74 72 70 72 77 80 80 80 79 77
81 84 86 87 87 88 86 83 81 81 83 85 87 87 88 92 94 95 95 95 94 93 92 89 85 82 79 79 79 78 77 76 75 74 72 72 74 76 73 71 74 77 77 75 76 76 75 75 77 78 78 76 72 70 71 73 74 75 77 78 78 77 75 73 72 70 68 69 70 71 71 72 72 72 71 69 68 70 74 79 81 81 79 76 72
86 87 88 88 89 89 85 82 80 80 80 81 82 82 83 86 90 93 95 95 94 92 91 89 85 83 81 80 80 79 78 77 76 75 74 74 76 78 76 77 82 82 78 73 73 74 74 75 76 79 78 75 73 74 77 79 79 78 76 76 76 75 72 70 70 70 71 73 74 73 72 72 70 68 69 70 72 76 78 79 77 75 72 69 66
82 82 81 81 82 82 80 77 76 75 74 73 74 72 70 73 80 87 90 92 92 91 91 90 88 88 86 82 80 79 78 76 74 72 71 71 71 71 74 78 80 75 70 71 74 75 75 76 77 78 77 75 75 76 77 78 79 78 76 75 74 74 74 74 75 75 75 75 75 74 71 70 69 70 73 78 79 79 76 73 70 69 66 61 57
69 69 68 67 67 67 67 67 68 67 66 66 66 65 63 65 71 75 77 78 78 78 78 77 76 78 78 77 76 76 75 73 72 71 70 70 69 70 71 71 70 68 68 73 76 76 76 77 76 74 73 73 74 75 76 78 78 77 76 76 77 77 79 79 79 79 79 78 76 74 73 72 73 76 80 80 77 73 70 67 65 62 57 50 45
62 61 61 61 60 59 59 60 60 59 59 58 60 63 66 65 63 61 61 61 60 60 60 60 61 63 65 67 70 72 72 73 74 73 71 71 71 71 69 67 69 71 73 74 76 76 76 75 74 72 73 75 76 77 79 79 79 80 81 81 81 80 81 82 82 83 83 81 78 76 75 77 80 81 79 74 70 67 65 62 56 50 43 37 32
58 58 58 58 58 57 57 57 56 56 56 55 57 62 65 62 58 56 56 55 54 54 55 56 57 59 60 62 63 65 67 68 68 68 68 69 70 69 67 67 70 73 73 75 78 79 77 75 71 70 72 74 76 79 82 82 84 87 88 88 87 86 85 85 85 85 83 81 79 79 80 81 81 77 71 67 65 62 57 50 42 36 30 24 20
57 57 57 57 57 56 56 56 55 55 54 54 55 57 57 56 55 56 55 54 54 55 57 59 60 61 61 62 63 65 67 67 65 65 67 68 69 68 69 70 72 74 75 79 81 80 77 75 73 72 74 78 82 86 89 90 91 93 92 92 94 93 90 88 88 86 83 81 82 82 82 78 73 68 64 61 58 51 44 37 30 25 20 16 15
56 56 56 56 55 55 54 54 53 53 53 53 52 52 52 53 55 57 56 56 57 58 60 61 61 61 61 62 63 65 68 68 65 63 64 66 67 68 70 73 76 79 81 82 82 79 76 77 78 79 82 85 89 93 94 93 93 93 92 92 93 92 89 89 88 84 82 82 82 80 76 69 65 62 58 53 46 38 30 25 20 16 15 13 13
55 55 55 54 54 54 54 53 53 53 53 53 53 52 53 54 56 56 57 58 58 59 59 59 58 58 58 58 59 60 62 64 64 65 66 68 69 70 71 73 76 79 81 80 78 77 78 81 83 86 87 90 92 94 94 93 93 93 92 90 90 90 89 87 84 82 82 82 78 72 66 62 58 54 47 39 31 24 19 16 14 13 13 12 13
54 54 55 55 55 55 56 56 56 55 55 55 54 54 54 54 55 56 57 57 57 56 56 56 57 58 58 59 61 63 63 64 65 67 69 69 69 69 71 73 74 75 75 75 74 76 79 83 87 90 92 93 93 92 93 93 93 91 90 89 88 87 85 83 82 82 80 74 68 63 59 54 48 39 30 24 19 15 14 13 13 13 13 13 13
50 52 53 54 55 56 56 55 54 53 52 52 51 51 51 54 56 57 57 56 56 54 54 55 58 59 60 62 66 68 67 66 67 67 67 68 69 71 74 75 75 74 74 74 75 76 80 85 91 93 92 92 92 91 90 90 89 88 87 86 84 83 83 82 80 76 70 64 59 54 48 40 32 24 19 16 14 13 13 13 13 13 14 14 14
46 46 47 48 49 50 50 50 50 50 50 49 49 50 51 53 56 56 56 56 55 54 54 55 57 58 60 63 65 66 66 66 66 66 66 68 70 73 74 74 73 73 73 74 74 75 79 85 91 92 92 91 91 89 88 88 87 86 85 83 83 82 81 77 71 65 59 55 49 42 33 26 21 17 16 15 14 13 13 13 13 14 15 14 15
43 42 42 43 44 45 47 47 47 48 48 48 48 49 49 51 53 55 55 55 55 55 54 55 57 58 60 62 64 64 64 64 64 65 67 68 69 71 72 71 71 71 72 71 72 75 79 84 89 91 92 91 89 88 88 88 87 84 82 82 81 78 72 66 61 56 51 45 37 29 23 20 17 16 15 14 13 13 13 14 14 15 15 16 16
42 41 41 41 41 43 44 45 46 46 46 47 46 47 48 49 51 52 52 51 51 52 53 55 57 59 60 61 62 62 62 63 65 66 66 67 66 67 67 67 67 67 69 71 73 77 80 84 87 90 90 89 88 89 88 86 83 81 81 79 74 68 63 58 53 47 40 33 27 22 19 17 15 14 13 13 13 14 14 15 16 16 17 17 17
40 40 39 38 39 40 42 44 45 45 45 46 46 46 48 49 49 48 48 48 47 48 50 52 55 58 58 59 59 60 61 63 63 63 63 63 63 65 66 66 67 68 70 73 76 79 81 84 86 88 89 88 87 86 84 82 81 80 77 71 66 60 55 49 42 35 29 24 20 18 16 14 14 13 13 13 14 15 16 16 18 18 18 18 18
38 36 37 37 38 40 43 45 47 46 46 45 45 46 47 48 47 47 46 46 46 47 49 51 53 55 54 54 55 57 59 61 60 60 61 62 64 66 67 68 69 70 72 73 76 79 81 84 85 86 87 86 84 83 82 82 80 76 70 64 58 52 45 37 30 25 21 18 16 15 14 13 13 14 14 15 16 17 17 18 18 18 18 18 18
37 36 36 37 37 40 43 45 46 46 44 44 45 46 47 47 46 45 46 45 46 47 50 52 53 53 53 54 57 60 62 63 63 62 63 65 66 67 68 68 69 71 74 76 78 80 82 83 85 86 86 84 84 84 83 80 75 68 62 56 48 40 32 26 22 18 16 15 15 14 14 13 14 15 16 17 18 18 19 19 18 19 19 19 18
36 34 34 34 35 38 41 43 45 45 44 44 46 47 47 47 46 45 46 46 48 50 52 53 54 53 54 56 59 61 63 64 64 64 64 65 66 67 68 68 69 72 78 82 84 84 84 86 87 86 86 85 85 83 79 74 66 59 51 44 36 29 24 20 17 16 15 15 15 14 14 14 15 16 17 18 18 19 19 20 20 20 20 19 19
34 33 33 33 34 35 38 42 44 45 45 45 46 48 48 47 46 46 45 46 48 50 51 53 53 53 53 54 57 59 61 62 63 64 64 64 65 67 66 65 66 68 73 78 83 86 87 88 87 86 86 85 83 77 70 62 53 45 38 33 28 24 20 17 16 16 16 15 14 14 15 16 17 18 19 19 19 20 20 20 21 20 20 20 19